Weather in Brunico

Italy     46°47′44″N   11°56′10″E
В апреле 2022 года жителям России запретили посещать сайт meteo.paraplan.net по решению Генеральной прокуратуры. Аудитория сайта уменьшилась в 10 раз. Владельцы сайта не видят смысла в поддержке погодного сервера в таких условиях. Сайт будет закрыт в октябре.
temp.,
°C
wind,
m/s
gust,
m/s
humid.,
%
clouds,
%
prec.,
mm/h
press.,
hPa
HPBL,
m
30 september, fri
fri3023:00+4n2398100 3.3 1004235
02:00+2nnw1299100 6.8 1007126
05:00+3n1199100 1.1 1007196
08:00+3ene1198100 2.2 1009183
11:00+4ene1197100 0.3 1010200
14:00+5ese1295100 2.0 1011445
17:00+5ene1196100 0.7 1012135
20:00+5ene019699 0.8 101334
1 october, sat
sat123:00+5nne0096100 0.1 101428
02:00+5nne119691 0.2 101531
05:00+5e1196100 0.7 101523
08:00+5nnw1198100 1.5 101660
11:00+7w1191100 0.0 1016345
14:00+9wnw1181100 0.3 1014551
17:00+9w127647 0.3 1014667
20:00+5w119072 0.5 101613
2 october, sun
sun223:00+5n119799 0.7 101847
02:00+5nnw129898 1.5 1020119
05:00+4n119761 0.3 102146
08:00+4n119587 0.3 102368
11:00+8nnw228190 0.0 1023488
14:00+11nnw226326 0.0 1022918
17:00+10nnw226834 0.0 1022698
20:00+6nnw118963 0.0 102417
3 october, mon
mon323:00+5nne118988 0.1 102428
02:00+5nne119246 0.4 102425
05:00+4ne119514 0.0 102321
08:00+4nnw019411 0.0 102314
11:00+11nnw2259100 0.0 1021643
14:00+14n224926 0.0 10191515
17:00+12n336110 0.2 1020807
20:00+5nne11925 0.2 102418
4 october, tue
tue423:00+4e01945 0.0 102410
02:00+3se019439 0.0 102411
05:00+3se019366 0.0 102310
08:00+3se118839 0.0 102311
11:00+12w115644 0.0 1021460
14:00+15wnw114184 0.0 10191013
17:00+14wnw1249100 0.0 1018314
20:00+6ssw117996 0.0 102111